Regional Weather Roundup
Issued by NWS

Home | Current Version | Previous Version | Text Only | Print | Product List | Glossary Off
Versions: 1 2 3 4 5 6 7 8 9 10 11 12 13 14 15 16 17 18 19 20 21 22 23 24 25 26 27 28 29 30 31 32 33 34 35 36 37 38 39 40 41 42 43 44 45 46 47 48 49 50

925
ASUS43 KDMX 211006
RWRIA

WEATHER ROUNDUP FOR IOWA
NATIONAL WEATHER SERVICE DES MOINES IA
500 AM CDT SAT APR 21 2018

NOTE: "FAIR" INDICATES FEW OR NO CLOUDS BELOW 12,000 FEET WITH NO
SIGNIFICANT WEATHER AND/OR OBSTRUCTIONS TO VISIBILITY.

* - THESE STATIONS ARE NOT NWS STATIONS...THUS NOT UNDER NWS
QUALITY CONTROL.  THEY ALSO DO NOT REPORT WEATHER SUCH
AS PRECIPITATION OR FOG.

IAZ001>003-012>014-020>022-031>034-043>046-211100-
   NORTHWEST IOWA

CITY           SKY/WX    TMP DP  RH WIND       PRES   REMARKS
CARROLL *      CLOUDY    41  36  81 NE5       30.34F
CHEROKEE *     CLOUDY    37  32  79 NE6       30.36F WCI  33
DENISON *      CLOUDY    43  36  75 NE6       30.34R
LE MARS *      CLOUDY    41  32  70 NE5       30.34F
ORANGE CITY *  CLOUDY    39  34  81 E8        30.35F WCI  34
SHELDON *      CLOUDY    37  32  81 E9        30.35F WCI  31
SIOUX CITY     CLOUDY    43  32  65 E10       30.31F
SPENCER        CLOUDY    37  30  75 NE5       30.39S WCI  33
STORM LAKE *   CLOUDY    36  32  87 NE9       30.35F WCI  29
$$

IAZ055>058-069>071-079>083-090>094-211100-
   SOUTHWEST IOWA

CITY           SKY/WX    TMP DP  RH WIND       PRES   REMARKS
ATLANTIC *     CLOUDY    45  34  65 NE7       30.32F
AUDUBON *      CLOUDY    43  36  75 CALM      30.35R
CLARINDA *     CLOUDY    48  25  40 E3        30.31F
COUNCIL BLFS * CLOUDY    46  30  53 E13       30.29F
CRESTON *      CLOUDY    43  28  56 NE9       30.34R
HARLAN  *      CLOUDY    45  36  70 CALM      30.35F
LAMONI         CLOUDY    46  23  40 E3        30.32R
RED OAK *      CLOUDY    46  30  53 NE7       30.29F
SHENANDOAH *   CLOUDY    48  27  43 NE7       30.29S
$$

IAZ047>049-059>061-072>074-084-211100-
   CENTRAL IOWA

CITY           SKY/WX    TMP DP  RH WIND       PRES   REMARKS
AMES           CLOUDY    42  34  73 NE7       30.36F
ANKENY *       CLOUDY    43  36  75 N6        30.36F
BOONE *        CLOUDY    41  34  75 NE12      30.34F
CHARITON *     CLOUDY    45  27  49 NE7       30.32F
DES MOINES     CLOUDY    46  33  60 NE9       30.34F
GRINNELL*      CLOUDY    43  31  60 NE7       30.39R
KNOXVILLE *    CLOUDY    46  23  39 NE5       30.33F
MARSHALLTOWN   CLOUDY    41  36  82 N5        30.38S
NEWTON *       CLOUDY    45  32  61 NE8       30.37F
PELLA *        CLOUDY    45  26  49 NE3       30.37F
PERRY *        FAIR      41  30  65 NE5       30.35F
$$

IAZ004>006-015-016-023>025-035-036-211100-
   NORTH CENTRAL IOWA

CITY           SKY/WX    TMP DP  RH WIND       PRES   REMARKS
ALGONA *       CLOUDY    37  30  75 N5        30.40R WCI  34
CLARION *      CLOUDY    39  32  75 E10       30.39R WCI  32
ESTHERVILLE    CLOUDY    34  29  82 N5        30.40R WCI  30
FORT DODGE *   CLOUDY    40  32  73 NE7       30.37F
MASON CITY     CLOUDY    36  28  73 S3        30.40F
FOREST CITY *  CLOUDY    37  28  70 S9        30.39R WCI  31
WEBSTER CITY * CLOUDY    41  34  75 E7        30.36F
IOWA FALLS *   CLOUDY    41  32  72 NE3       30.40R
$$

IAZ007>011-017>019-026>030-037>042-050>054-066-211100-
   NORTHEAST IOWA

CITY           SKY/WX    TMP DP  RH WIND       PRES   REMARKS
CEDAR RAPIDS   FAIR      45  28  51 E8        30.38R
CHARLES CITY * CLOUDY    41  30  65 NE6       30.40F
CLINTON *      MOCLDY    46  21  37 SE10      30.41S
DECORAH *      MOCLDY    36  28  75 CALM      30.40R
DUBUQUE        CLOUDY    45  21  38 SE10      30.38F
MONTICELLO *   CLOUDY    45  28  53 S3        30.40R
OELWEIN *      CLOUDY    43  36  75 E7        30.40S
WATERLOO       CLOUDY    40  34  79 CALM      30.40S
$$

IAZ064-065-067-068-078-211100-
   EAST CENTRAL IOWA

CITY           SKY/WX    TMP DP  RH WIND       PRES   REMARKS
DAVENPORT      FAIR      43  26  51 SE6       30.41R
IOWA CITY      FAIR      48  26  42 CALM      30.40S
MT. PLEASANT * CLOUDY    43  28  56 E6        30.37F
MUSCATINE *    FAIR      46  30  53 E3        30.40R
QUAD CITIES    FAIR      46  25  43 E6        30.39R
$$

IAZ062-063-075>077-085>089-095>099-211100-
   SOUTHEAST IOWA

CITY           SKY/WX    TMP DP  RH WIND       PRES   REMARKS
BURLINGTON     CLOUDY    47  26  44 E7        30.37F
FAIRFIELD *    CLOUDY    45  25  45 NE3       30.37R
FORT MADISON * CLOUDY    48  27  43 E6        30.37F
KEOKUK *       CLOUDY    46  28  49 E9        30.36F
OSKALOOSA *    FAIR      42  26  52 E7        30.37R
CENTERVILLE *    N/A     43  27  52 CALM      30.33F
OTTUMWA        CLOUDY    44  25  47 E7        30.36R
WASHINGTON *   CLOUDY    43  30  61 E6        30.39S
$$

ABBREVIATIONS USED IN REMARKS
   TC - TEMPERATURES IN CELSIUS
  WCI - WIND CHILL INDEX
   HX - HEAT INDEX
  VSB - VISIBILITY
$$





USA.gov is the U.S. government's official web portal to all federal, state and local government web resources and services.